Regional Weather Roundup
Issued by NWS

Home | Current Version | Previous Version | Graphics & Text | Print | Product List | Glossary On
Versions: 1 2 3 4 5 6 7 8 9 10 11 12 13 14 15 16 17 18 19 20 21 22 23 24 25 26 27 28 29 30 31 32 33 34 35 36 37 38 39 40 41 42 43 44 45 46 47 48 49 50
818
ASUS43 KFSD 210302
RWRSD

WEATHER ROUNDUP FOR SOUTH DAKOTA
NATIONAL WEATHER SERVICE SIOUX FALLS SD
900 PM CST MON FEB 20 2017

NOTE: "FAIR" INDICATES FEW OR NO CLOUDS BELOW 12,000 FEET WITH NO
SIGNIFICANT WEATHER AND/OR OBSTRUCTIONS TO VISIBILITY.


SDZ001>005-009-010-012>017-210400-
NORTHWEST AND NORTH CENTRAL SOUTH DAKOTA

CITY           SKY/WX    TMP DP  RH WIND       PRES   REMARKS
BUFFALO          N/A     47  25  42 S12       29.65S
FAITH            N/A     42  29  59 S14       29.75F
MOBRIDGE       CLEAR     43  34  70 E9        29.75F
$$

SDZ012>016-024>037-041>051-057-063-072>074-210400-
SOUTHWEST AND SOUTH CENTRAL SOUTH DAKOTA

CITY           SKY/WX    TMP DP  RH WIND       PRES   REMARKS
RAPID CTY ARPT PTCLDY    49  29  46 S9        29.78F
PIERRE         CLEAR     40  30  67 SE5       29.80F
CUSTER         CLOUDY    47  27  45 W18G31    29.87S
ELLSWORTH AFB  PTCLDY    50  29  43 S9        29.76F
PHILIP         PTCLDY    41  28  60 E5        29.80F
PINE RIDGE     CLEAR     45  31  58 SW5       29.87F
SPEARFISH      FAIR      55  28  35 SW16G28   29.75S
WINNER         FAIR      44  28  53 S8        29.87F
$$

SDZ004>011-016>023-039-040-210400-
NORTHEAST SOUTH DAKOTA

CITY           SKY/WX    TMP DP  RH WIND       PRES   REMARKS
ABERDEEN       CLEAR     33  30  88 S8        29.83R WCI  26
WATERTOWN      CLEAR     38  36  92 W9        29.83R
BROOKINGS      CLEAR     39  37  92 W5        29.85R
SISSETON         N/A     40  36  86 W9        29.80R
$$

SDZ017-020-022-023-036>040-048>070-210400-
SOUTHEAST SOUTH DAKOTA

CITY           SKY/WX    TMP DP  RH WIND       PRES   REMARKS
SIOUX FALLS    CLEAR     39  37  92 CALM      29.88R
HURON          CLEAR     37  37 100 S6        29.85R
CHAMBERLAIN    CLEAR     38  33  79 CALM      29.86S
MITCHELL       CLEAR     42  37  82 SW7       29.88R
YANKTON        CLEAR     43  36  75 SW5       29.89R
$$

ABBREVIATIONS USED IN REMARKS
   TC - TEMPERATURE IN CELSIUS
  WCI - WIND CHILL INDEX
   HX - HEAT INDEX
  VSB - VISIBILITY





USA.gov is the U.S. government's official web portal to all federal, state and local government web resources and services.